Simultaneous Nadir Overpasses (SNOs) Predictions

Prediction of SNOs between GOES-15 and METOP-B Satellite Orbit:

Table of predicted SNOs for the next 14.0 days since TLE Epoch: 11/11/2023
Index Date Time (GOES-15) GOES-15 Lat,Lon METOP-B Lat,Lon Distance(km) Time Diff (sec)
1 11/11/2023 05:30:40 -0.27, 61.70 0.37, 58.96 313.43 80
2 11/12/2023 05:12:40 -0.27, 61.70 -0.79, 63.94 256.04 80
3 11/13/2023 17:31:39 0.26, 61.81 -0.28, 59.35 280.22 80
4 11/14/2023 17:08:18 0.26, 61.82 0.82, 64.35 287.98 80
5 11/16/2023 05:27:08 -0.25, 61.72 0.21, 59.79 220.83 80
6 11/17/2023 05:09:09 -0.25, 61.73 -0.96, 64.77 347.75 80
7 11/18/2023 17:28:06 0.24, 61.85 -0.15, 60.20 189.03 80
8 11/19/2023 17:04:46 0.24, 61.86 0.95, 65.19 378.53 80
9 11/21/2023 05:23:36 -0.23, 61.78 0.06, 60.63 131.63 80
10 11/22/2023 05:05:36 -0.23, 61.78 -1.06, 65.62 436.75 80
11 11/23/2023 17:24:34 0.22, 61.90 0.02, 61.03 99.33 80
12 11/24/2023 17:01:13 0.23, 61.92 1.14, 66.02 467.96 80
